Time,TemperatureF,DewpointF,PressureIn,WindDirection,WindDirectionDegrees,WindSpeedMPH,WindSpeedGustMPH,Humidity,HourlyPrecipIn,Conditions,Clouds,dailyrainin,SoftwareType,DateUTC
2013-10-30 00:01:00,34.2,30.7,30.37,SW,217,0.0,0.0,87,0.00,,,0.00,meteobridge,2013-10-30 04:01:00,
2013-10-30 00:02:00,34.2,30.7,30.37,SW,217,0.0,0.0,87,0.00,,,0.00,meteobridge,2013-10-30 04:02:00,
2013-10-30 00:05:00,34.2,30.7,30.37,SW,217,0.0,0.0,87,0.00,,,0.00,meteobridge,2013-10-30 04:05:00,
2013-10-30 00:10:00,34.2,30.7,30.37,SW,217,0.0,0.0,87,0.00,,,0.00,meteobridge,2013-10-30 04:10:00,
2013-10-30 00:13:00,34.2,30.7,30.37,SW,217,0.0,0.0,87,0.00,,,0.00,meteobridge,2013-10-30 04:13:00,
2013-10-30 00:18:00,34.3,31.1,30.37,SW,217,0.0,0.0,88,0.00,,,0.00,meteobridge,2013-10-30 04:18:00,
2013-10-30 00:23:00,34.3,31.1,30.36,SW,217,0.0,0.0,88,0.00,,,0.00,meteobridge,2013-10-30 04:23:00,
2013-10-30 00:28:00,34.3,31.1,30.37,SW,217,0.0,0.0,88,0.00,,,0.00,meteobridge,2013-10-30 04:28:00,
2013-10-30 00:34:00,34.3,31.1,30.37,SW,217,0.0,0.0,88,0.00,,,0.00,meteobridge,2013-10-30 04:34:00,
2013-10-30 00:39:00,34.3,30.9,30.36,SW,217,0.0,0.0,87,0.00,,,0.00,meteobridge,2013-10-30 04:39:00,
2013-10-30 00:44:00,34.2,30.9,30.36,SW,217,0.0,0.0,88,0.00,,,0.00,meteobridge,2013-10-30 04:44:00,
2013-10-30 00:50:00,34.2,30.9,30.36,SW,217,0.0,0.0,88,0.00,,,0.00,meteobridge,2013-10-30 04:50:00,
2013-10-30 00:55:00,34.2,30.9,30.36,SW,217,0.0,0.0,88,0.00,,,0.00,meteobridge,2013-10-30 04:55:00,
2013-10-30 01:00:00,34.2,30.9,30.36,SW,217,0.0,0.0,88,0.00,,,0.00,meteobridge,2013-10-30 05:00:00,
2013-10-30 01:06:00,34.2,30.9,30.36,SW,217,0.0,0.0,88,0.00,,,0.00,meteobridge,2013-10-30 05:06:00,
2013-10-30 01:11:00,34.3,31.1,30.36,SW,217,0.0,0.0,88,0.00,,,0.00,meteobridge,2013-10-30 05:11:00,
2013-10-30 01:16:00,34.3,31.5,30.36,SW,217,0.0,0.0,89,0.00,,,0.00,meteobridge,2013-10-30 05:16:00,
2013-10-30 01:21:00,34.3,31.5,30.36,SW,217,0.0,0.0,89,0.00,,,0.00,meteobridge,2013-10-30 05:21:00,
2013-10-30 01:27:00,34.3,31.5,30.35,SW,217,0.0,0.0,89,0.00,,,0.00,meteobridge,2013-10-30 05:27:00,
2013-10-30 01:32:00,34.5,31.6,30.35,SW,217,0.0,0.0,89,0.00,,,0.00,meteobridge,2013-10-30 05:32:00,
2013-10-30 01:37:00,34.5,31.6,30.35,SW,217,0.0,0.0,89,0.00,,,0.00,meteobridge,2013-10-30 05:37:00,
2013-10-30 01:42:00,34.5,31.3,30.35,SW,217,0.0,0.0,88,0.00,,,0.00,meteobridge,2013-10-30 05:42:00,
2013-10-30 01:48:00,34.7,31.5,30.35,SW,217,0.0,0.0,88,0.00,,,0.00,meteobridge,2013-10-30 05:48:00,
2013-10-30 01:53:00,34.7,31.5,30.35,SW,217,0.0,0.0,88,0.00,,,0.00,meteobridge,2013-10-30 05:53:00,
2013-10-30 01:58:00,34.7,31.8,30.35,SW,217,0.0,0.0,89,0.00,,,0.00,meteobridge,2013-10-30 05:58:00,
2013-10-30 02:04:00,34.9,32.0,30.35,SW,217,0.0,0.0,89,0.00,,,0.00,meteobridge,2013-10-30 06:04:00,
2013-10-30 02:09:00,35.1,32.2,30.35,SW,217,0.0,0.0,89,0.00,,,0.00,meteobridge,2013-10-30 06:09:00,
2013-10-30 02:15:00,35.1,32.2,30.35,SW,217,0.0,0.0,89,0.00,,,0.00,meteobridge,2013-10-30 06:15:00,
2013-10-30 02:20:00,35.1,32.2,30.35,SW,217,0.0,0.0,89,0.00,,,0.00,meteobridge,2013-10-30 06:20:00,
2013-10-30 02:25:00,35.1,31.8,30.34,SW,217,0.0,0.0,88,0.00,,,0.00,meteobridge,2013-10-30 06:25:00,
2013-10-30 02:30:00,35.1,32.2,30.35,SW,217,0.0,0.0,89,0.00,,,0.00,meteobridge,2013-10-30 06:30:00,
2013-10-30 02:35:00,35.2,32.4,30.35,SW,217,0.0,0.0,89,0.00,,,0.00,meteobridge,2013-10-30 06:35:00,
2013-10-30 02:40:00,35.2,32.4,30.35,SW,217,0.0,0.0,89,0.00,,,0.00,meteobridge,2013-10-30 06:40:00,
2013-10-30 02:45:00,35.4,32.5,30.34,SW,217,0.0,0.0,89,0.00,,,0.00,meteobridge,2013-10-30 06:45:00,
2013-10-30 02:51:00,35.4,32.2,30.34,SW,217,0.0,0.0,88,0.00,,,0.00,meteobridge,2013-10-30 06:51:00,
2013-10-30 02:56:00,35.4,32.2,30.35,SW,217,0.0,0.0,88,0.00,,,0.00,meteobridge,2013-10-30 06:56:00,
2013-10-30 03:01:00,35.6,32.4,30.34,SW,217,0.0,0.0,88,0.00,,,0.00,meteobridge,2013-10-30 07:01:00,
2013-10-30 03:07:00,35.8,32.9,30.35,SW,217,0.0,0.0,89,0.00,,,0.00,meteobridge,2013-10-30 07:07:00,
2013-10-30 03:13:00,36.0,33.1,30.35,SW,217,0.0,0.0,89,0.00,,,0.00,meteobridge,2013-10-30 07:13:00,
2013-10-30 03:18:00,36.0,32.7,30.35,SW,217,0.0,0.0,88,0.00,,,0.00,meteobridge,2013-10-30 07:18:00,
2013-10-30 03:23:00,36.1,32.9,30.35,SW,217,0.0,0.0,88,0.00,,,0.00,meteobridge,2013-10-30 07:23:00,
2013-10-30 03:28:00,36.1,32.9,30.35,SW,217,0.0,0.0,88,0.00,,,0.00,meteobridge,2013-10-30 07:28:00,
2013-10-30 03:34:00,36.3,32.9,30.35,SW,217,0.0,0.0,87,0.00,,,0.00,meteobridge,2013-10-30 07:34:00,
2013-10-30 03:39:00,36.5,33.1,30.34,SW,217,0.0,0.0,87,0.00,,,0.00,meteobridge,2013-10-30 07:39:00,
2013-10-30 03:45:00,36.7,32.9,30.34,SW,217,0.0,0.0,86,0.00,,,0.00,meteobridge,2013-10-30 07:45:00,
2013-10-30 03:50:00,36.9,33.4,30.34,SW,217,0.0,0.0,87,0.00,,,0.00,meteobridge,2013-10-30 07:50:00,
2013-10-30 03:56:00,36.9,33.4,30.34,SW,217,0.0,0.0,87,0.00,,,0.00,meteobridge,2013-10-30 07:56:00,
2013-10-30 04:01:00,37.0,33.6,30.33,SW,217,0.0,0.0,87,0.00,,,0.00,meteobridge,2013-10-30 08:01:00,
2013-10-30 04:06:00,37.0,33.6,30.32,SW,217,0.0,0.0,87,0.00,,,0.00,meteobridge,2013-10-30 08:06:00,
2013-10-30 04:12:00,37.0,32.9,30.32,SW,217,0.0,0.0,85,0.00,,,0.00,meteobridge,2013-10-30 08:12:00,
2013-10-30 04:17:00,37.0,32.7,30.32,SW,217,0.0,0.0,84,0.00,,,0.00,meteobridge,2013-10-30 08:17:00,
2013-10-30 04:22:00,37.2,32.5,30.32,SW,217,0.0,0.0,83,0.00,,,0.00,meteobridge,2013-10-30 08:22:00,
2013-10-30 04:28:00,37.2,32.5,30.32,SW,217,0.0,0.0,83,0.00,,,0.00,meteobridge,2013-10-30 08:28:00,
2013-10-30 04:33:00,37.2,32.5,30.32,SW,217,0.0,0.0,83,0.00,,,0.00,meteobridge,2013-10-30 08:33:00,
2013-10-30 04:38:00,37.2,32.2,30.32,SW,217,0.0,0.0,82,0.00,,,0.00,meteobridge,2013-10-30 08:38:00,
2013-10-30 04:43:00,37.2,32.5,30.31,SW,217,0.0,0.0,83,0.00,,,0.00,meteobridge,2013-10-30 08:43:00,
2013-10-30 04:48:00,37.2,32.5,30.32,SW,217,0.0,0.0,83,0.00,,,0.00,meteobridge,2013-10-30 08:48:00,
2013-10-30 04:54:00,37.0,32.0,30.32,SW,217,0.0,0.0,82,0.00,,,0.00,meteobridge,2013-10-30 08:54:00,
2013-10-30 04:59:00,37.0,32.4,30.32,SW,217,0.0,0.0,83,0.00,,,0.00,meteobridge,2013-10-30 08:59:00,
2013-10-30 05:04:00,37.0,32.4,30.32,SW,217,0.0,0.0,83,0.00,,,0.00,meteobridge,2013-10-30 09:04:00,
2013-10-30 05:10:00,37.0,32.4,30.32,SW,217,0.0,0.0,83,0.00,,,0.00,meteobridge,2013-10-30 09:10:00,
2013-10-30 05:15:00,37.2,32.5,30.32,SW,217,0.0,0.0,83,0.00,,,0.00,meteobridge,2013-10-30 09:15:00,
2013-10-30 05:20:00,37.2,32.9,30.32,SW,217,0.0,0.0,84,0.00,,,0.00,meteobridge,2013-10-30 09:20:00,
2013-10-30 05:26:00,37.2,32.9,30.32,SW,217,0.0,0.0,84,0.00,,,0.00,meteobridge,2013-10-30 09:26:00,
2013-10-30 05:31:00,37.2,32.9,30.32,SW,217,0.0,0.0,84,0.00,,,0.00,meteobridge,2013-10-30 09:31:00,
2013-10-30 05:36:00,37.2,32.9,30.32,SW,217,0.0,0.0,84,0.00,,,0.00,meteobridge,2013-10-30 09:36:00,
2013-10-30 05:41:00,37.0,32.9,30.32,SW,217,0.0,0.0,85,0.00,,,0.00,meteobridge,2013-10-30 09:41:00,
2013-10-30 05:47:00,36.9,32.7,30.32,SW,217,0.0,0.0,85,0.00,,,0.00,meteobridge,2013-10-30 09:47:00,
2013-10-30 05:52:00,36.9,32.7,30.32,SW,217,0.0,0.0,85,0.00,,,0.00,meteobridge,2013-10-30 09:52:00,
2013-10-30 05:57:00,36.9,33.1,30.31,SW,217,0.0,2.0,86,0.00,,,0.00,meteobridge,2013-10-30 09:57:00,
2013-10-30 06:02:00,36.9,33.1,30.32,SW,217,0.0,0.0,86,0.00,,,0.00,meteobridge,2013-10-30 10:02:00,
2013-10-30 06:08:00,36.9,33.1,30.32,SW,217,0.0,0.0,86,0.00,,,0.00,meteobridge,2013-10-30 10:08:00,
2013-10-30 06:13:00,36.9,33.4,30.32,SW,217,0.0,0.0,87,0.00,,,0.00,meteobridge,2013-10-30 10:13:00,
2013-10-30 06:18:00,36.9,33.1,30.32,SW,217,0.0,0.0,86,0.00,,,0.00,meteobridge,2013-10-30 10:18:00,
2013-10-30 06:24:00,36.7,33.3,30.32,SW,217,0.0,0.0,87,0.00,,,0.00,meteobridge,2013-10-30 10:24:00,
2013-10-30 06:29:00,36.9,33.4,30.32,SW,217,0.0,0.0,87,0.00,,,0.00,meteobridge,2013-10-30 10:29:00,
2013-10-30 06:34:00,36.9,33.4,30.32,SW,217,0.0,0.0,87,0.00,,,0.00,meteobridge,2013-10-30 10:34:00,
2013-10-30 06:39:00,36.9,33.4,30.32,SW,217,0.0,0.0,87,0.00,,,0.00,meteobridge,2013-10-30 10:39:00,
2013-10-30 06:45:00,36.9,33.1,30.32,SW,217,0.0,0.0,86,0.00,,,0.00,meteobridge,2013-10-30 10:45:00,
2013-10-30 06:50:00,36.9,33.1,30.32,SW,217,0.0,0.0,86,0.00,,,0.00,meteobridge,2013-10-30 10:50:00,
2013-10-30 06:56:00,37.0,33.6,30.32,SW,217,0.0,0.0,87,0.00,,,0.00,meteobridge,2013-10-30 10:56:00,
2013-10-30 07:01:00,37.0,33.6,30.32,SW,217,0.0,0.0,87,0.00,,,0.00,meteobridge,2013-10-30 11:01:00,
2013-10-30 07:06:00,37.0,33.6,30.32,SW,217,0.0,0.0,87,0.00,,,0.00,meteobridge,2013-10-30 11:06:00,
2013-10-30 07:12:00,37.0,33.6,30.32,SW,217,0.0,0.0,87,0.00,,,0.00,meteobridge,2013-10-30 11:12:00,
2013-10-30 07:17:00,37.0,33.6,30.32,SW,217,0.0,0.0,87,0.00,,,0.00,meteobridge,2013-10-30 11:17:00,
2013-10-30 07:22:00,37.0,33.6,30.32,SW,217,0.0,0.0,87,0.00,,,0.00,meteobridge,2013-10-30 11:22:00,
2013-10-30 07:27:00,37.0,33.3,30.31,SW,217,0.0,0.0,86,0.00,,,0.00,meteobridge,2013-10-30 11:27:00,
2013-10-30 07:33:00,37.0,33.6,30.31,SW,217,0.0,0.0,87,0.00,,,0.00,meteobridge,2013-10-30 11:33:00,
2013-10-30 07:38:00,37.0,33.6,30.32,SW,217,0.0,0.0,87,0.00,,,0.00,meteobridge,2013-10-30 11:38:00,
2013-10-30 07:43:00,37.0,33.6,30.32,SW,217,0.0,0.0,87,0.00,,,0.00,meteobridge,2013-10-30 11:43:00,
2013-10-30 07:48:00,37.0,33.3,30.32,SW,217,0.0,0.0,86,0.00,,,0.00,meteobridge,2013-10-30 11:48:00,
2013-10-30 07:54:00,37.2,33.8,30.32,SW,217,0.0,0.0,87,0.00,,,0.00,meteobridge,2013-10-30 11:54:00,
2013-10-30 07:59:00,37.4,33.8,30.32,SW,217,0.0,0.0,87,0.00,,,0.00,meteobridge,2013-10-30 11:59:00,
2013-10-30 08:04:00,37.8,34.2,30.32,SW,217,0.0,0.0,87,0.00,,,0.00,meteobridge,2013-10-30 12:04:00,
2013-10-30 08:10:00,37.8,34.0,30.32,SW,217,0.0,0.0,86,0.00,,,0.00,meteobridge,2013-10-30 12:10:00,
2013-10-30 08:15:00,37.9,33.8,30.32,SW,217,0.0,0.0,85,0.00,,,0.00,meteobridge,2013-10-30 12:15:00,
2013-10-30 08:20:00,38.1,33.8,30.32,SW,217,0.0,0.0,84,0.00,,,0.00,meteobridge,2013-10-30 12:20:00,
2013-10-30 08:25:00,38.3,34.2,30.32,SW,217,0.0,0.0,85,0.00,,,0.00,meteobridge,2013-10-30 12:25:00,
2013-10-30 08:31:00,38.5,34.2,30.32,SW,217,0.0,0.9,84,0.00,,,0.00,meteobridge,2013-10-30 12:31:00,
2013-10-30 08:37:00,38.8,34.2,30.31,SW,217,0.0,0.0,83,0.00,,,0.00,meteobridge,2013-10-30 12:37:00,
2013-10-30 08:43:00,39.0,34.3,30.31,SW,217,0.0,0.0,83,0.00,,,0.00,meteobridge,2013-10-30 12:43:00,
2013-10-30 08:48:00,39.2,34.5,30.31,SW,217,0.0,0.0,83,0.00,,,0.00,meteobridge,2013-10-30 12:48:00,
2013-10-30 08:53:00,39.4,34.7,30.32,SW,217,0.9,0.9,83,0.00,,,0.00,meteobridge,2013-10-30 12:53:00,
2013-10-30 08:58:00,39.6,34.5,30.32,South,171,0.0,0.9,82,0.00,,,0.00,meteobridge,2013-10-30 12:58:00,
2013-10-30 09:04:00,39.7,34.2,30.32,South,171,0.0,0.0,80,0.00,,,0.00,meteobridge,2013-10-30 13:04:00,
2013-10-30 09:09:00,39.9,34.0,30.32,South,171,0.0,0.0,79,0.00,,,0.00,meteobridge,2013-10-30 13:09:00,
2013-10-30 09:14:00,40.3,34.3,30.32,South,171,0.0,0.0,79,0.00,,,0.00,meteobridge,2013-10-30 13:14:00,
2013-10-30 09:19:00,40.5,34.2,30.32,East,93,0.0,2.0,78,0.00,,,0.00,meteobridge,2013-10-30 13:19:00,
2013-10-30 09:24:00,40.6,34.3,30.32,ENE,65,0.0,2.0,78,0.00,,,0.00,meteobridge,2013-10-30 13:24:00,
2013-10-30 09:30:00,40.8,34.5,30.32,NE,46,0.0,0.9,78,0.00,,,0.00,meteobridge,2013-10-30 13:30:00,
2013-10-30 09:35:00,41.0,35.1,30.31,NE,46,0.0,0.9,79,0.00,,,0.00,meteobridge,2013-10-30 13:35:00,
2013-10-30 09:40:00,41.4,34.7,30.31,NE,46,0.0,0.9,77,0.00,,,0.00,meteobridge,2013-10-30 13:40:00,
2013-10-30 09:45:00,41.7,34.7,30.31,NNE,26,2.0,2.9,76,0.00,,,0.00,meteobridge,2013-10-30 13:45:00,
2013-10-30 09:51:00,42.1,34.7,30.31,NNE,29,0.0,0.0,75,0.00,,,0.00,meteobridge,2013-10-30 13:51:00,
2013-10-30 09:57:00,42.3,34.9,30.31,NNE,29,0.0,0.0,75,0.00,,,0.00,meteobridge,2013-10-30 13:57:00,
2013-10-30 10:02:00,42.4,35.4,30.31,NNE,29,0.0,0.0,76,0.00,,,0.00,meteobridge,2013-10-30 14:02:00,
2013-10-30 10:07:00,42.6,35.6,30.31,NNE,29,0.0,0.0,76,0.00,,,0.00,meteobridge,2013-10-30 14:07:00,
2013-10-30 10:12:00,43.0,36.0,30.31,NNE,29,0.0,0.0,76,0.00,,,0.00,meteobridge,2013-10-30 14:12:00,
2013-10-30 10:17:00,43.3,35.6,30.31,North,355,2.0,2.9,74,0.00,,,0.00,meteobridge,2013-10-30 14:17:00,
2013-10-30 10:23:00,43.9,36.1,30.31,NNE,27,0.0,2.9,74,0.00,,,0.00,meteobridge,2013-10-30 14:23:00,
2013-10-30 10:28:00,44.2,35.8,30.31,NNE,24,0.0,2.0,72,0.00,,,0.00,meteobridge,2013-10-30 14:28:00,
2013-10-30 10:33:00,44.8,36.3,30.32,NNE,24,0.0,0.9,72,0.00,,,0.00,meteobridge,2013-10-30 14:33:00,
2013-10-30 10:38:00,45.1,36.7,30.32,NNE,24,0.0,0.0,72,0.00,,,0.00,meteobridge,2013-10-30 14:38:00,
2013-10-30 10:43:00,45.7,36.9,30.31,NNE,24,0.0,0.0,71,0.00,,,0.00,meteobridge,2013-10-30 14:43:00,
2013-10-30 10:49:00,46.0,36.9,30.31,NNE,24,0.0,0.9,70,0.00,,,0.00,meteobridge,2013-10-30 14:49:00,
2013-10-30 10:54:00,46.8,37.6,30.31,NNE,24,0.0,2.0,70,0.00,,,0.00,meteobridge,2013-10-30 14:54:00,
2013-10-30 11:00:00,47.1,37.4,30.31,SE,130,0.0,2.0,69,0.00,,,0.00,meteobridge,2013-10-30 15:00:00,
2013-10-30 11:05:00,47.5,38.1,30.31,SE,130,0.0,0.0,70,0.00,,,0.00,meteobridge,2013-10-30 15:05:00,
2013-10-30 11:10:00,47.7,38.7,30.31,SE,130,0.0,0.0,71,0.00,,,0.00,meteobridge,2013-10-30 15:10:00,
2013-10-30 11:16:00,47.8,38.1,30.30,SE,130,0.0,0.0,69,0.00,,,0.00,meteobridge,2013-10-30 15:16:00,
2013-10-30 11:21:00,48.0,38.7,30.30,SE,130,0.0,0.0,70,0.00,,,0.00,meteobridge,2013-10-30 15:21:00,
2013-10-30 11:26:00,48.2,38.8,30.30,SE,130,0.0,0.0,70,0.00,,,0.00,meteobridge,2013-10-30 15:26:00,
2013-10-30 11:32:00,48.4,38.7,30.30,SE,130,0.0,0.0,69,0.00,,,0.00,meteobridge,2013-10-30 15:32:00,
2013-10-30 11:37:00,48.6,39.2,30.30,SE,130,0.0,0.0,70,0.00,,,0.00,meteobridge,2013-10-30 15:37:00,
2013-10-30 11:43:00,48.6,38.8,30.30,SE,130,0.0,0.0,69,0.00,,,0.00,meteobridge,2013-10-30 15:43:00,
2013-10-30 11:48:00,48.7,39.7,30.30,West,259,0.0,2.0,71,0.00,,,0.00,meteobridge,2013-10-30 15:48:00,
2013-10-30 11:53:00,48.9,40.6,30.29,West,266,2.0,2.9,73,0.00,,,0.00,meteobridge,2013-10-30 15:53:00,
2013-10-30 11:58:00,49.3,41.0,30.29,West,266,0.0,0.0,73,0.00,,,0.00,meteobridge,2013-10-30 15:58:00,
2013-10-30 12:03:00,49.5,41.2,30.29,WNW,283,0.9,2.0,73,0.00,,,0.00,meteobridge,2013-10-30 16:03:00,
2013-10-30 12:08:00,49.8,41.5,30.29,North,5,0.0,2.0,73,0.00,,,0.00,meteobridge,2013-10-30 16:08:00,
2013-10-30 12:13:00,50.0,41.7,30.29,North,5,0.0,0.9,73,0.00,,,0.00,meteobridge,2013-10-30 16:13:00,
2013-10-30 12:19:00,50.2,41.9,30.29,West,276,0.9,0.9,73,0.00,,,0.00,meteobridge,2013-10-30 16:19:00,
2013-10-30 12:24:00,50.4,42.1,30.28,West,275,2.0,2.0,73,0.00,,,0.00,meteobridge,2013-10-30 16:24:00,
2013-10-30 12:30:00,50.5,42.3,30.28,West,275,0.0,0.0,73,0.00,,,0.00,meteobridge,2013-10-30 16:30:00,
2013-10-30 12:35:00,50.7,41.7,30.28,WNW,287,0.0,0.0,71,0.00,,,0.00,meteobridge,2013-10-30 16:35:00,
2013-10-30 12:41:00,51.1,42.4,30.28,WNW,287,0.0,0.0,72,0.00,,,0.00,meteobridge,2013-10-30 16:41:00,
2013-10-30 12:46:00,51.3,42.6,30.28,WNW,287,0.0,0.0,72,0.00,,,0.00,meteobridge,2013-10-30 16:46:00,
2013-10-30 12:51:00,51.4,43.2,30.27,WNW,287,0.0,0.9,73,0.00,,,0.00,meteobridge,2013-10-30 16:51:00,
2013-10-30 12:56:00,51.6,43.3,30.27,WNW,287,0.0,0.0,73,0.00,,,0.00,meteobridge,2013-10-30 16:56:00,
2013-10-30 13:01:00,51.8,43.3,30.27,WNW,287,0.9,0.9,73,0.00,,,0.00,meteobridge,2013-10-30 17:01:00,
2013-10-30 13:07:00,52.0,43.9,30.27,West,281,0.0,0.0,74,0.00,,,0.00,meteobridge,2013-10-30 17:07:00,
2013-10-30 13:12:00,52.2,44.1,30.26,West,281,0.0,0.9,74,0.00,,,0.00,meteobridge,2013-10-30 17:12:00,
2013-10-30 13:17:00,52.2,44.1,30.26,West,281,0.0,0.0,74,0.00,,,0.00,meteobridge,2013-10-30 17:17:00,
2013-10-30 13:22:00,52.2,44.1,30.26,North,355,0.0,0.9,74,0.00,,,0.00,meteobridge,2013-10-30 17:22:00,
2013-10-30 13:28:00,52.2,44.1,30.26,North,350,0.9,0.9,74,0.00,,,0.00,meteobridge,2013-10-30 17:28:00,
2013-10-30 13:33:00,52.3,44.2,30.26,North,350,0.0,0.9,74,0.00,,,0.00,meteobridge,2013-10-30 17:33:00,
2013-10-30 13:38:00,52.2,44.1,30.26,NW,307,0.0,0.9,74,0.00,,,0.00,meteobridge,2013-10-30 17:38:00,
2013-10-30 13:44:00,52.2,44.1,30.25,WNW,300,0.0,0.0,74,0.00,,,0.00,meteobridge,2013-10-30 17:44:00,
2013-10-30 13:49:00,52.2,44.4,30.25,WSW,253,2.0,2.0,75,0.00,,,0.00,meteobridge,2013-10-30 17:49:00,
2013-10-30 13:54:00,52.3,44.6,30.25,West,272,0.0,0.9,75,0.00,,,0.00,meteobridge,2013-10-30 17:54:00,
2013-10-30 13:59:00,52.3,44.6,30.24,West,272,0.0,0.0,75,0.00,,,0.00,meteobridge,2013-10-30 17:59:00,
2013-10-30 14:04:00,52.3,44.6,30.24,West,272,0.0,0.9,75,0.00,,,0.00,meteobridge,2013-10-30 18:04:00,
2013-10-30 14:10:00,52.5,44.8,30.24,NW,307,0.0,0.0,75,0.00,,,0.00,meteobridge,2013-10-30 18:10:00,
2013-10-30 14:15:00,52.5,44.8,30.24,NW,307,0.0,0.9,75,0.00,,,0.00,meteobridge,2013-10-30 18:15:00,
2013-10-30 14:21:00,52.5,44.8,30.24,NW,307,0.9,0.9,75,0.00,,,0.00,meteobridge,2013-10-30 18:21:00,
2013-10-30 14:26:00,52.7,45.3,30.23,NW,307,0.0,2.0,76,0.00,,,0.00,meteobridge,2013-10-30 18:26:00,
2013-10-30 14:31:00,52.9,45.9,30.24,NW,307,0.0,0.0,77,0.00,,,0.00,meteobridge,2013-10-30 18:31:00,
2013-10-30 14:36:00,53.1,45.3,30.23,NW,307,0.0,0.0,75,0.00,,,0.00,meteobridge,2013-10-30 18:36:00,
2013-10-30 14:41:00,53.1,45.3,30.23,NW,307,0.0,0.0,75,0.00,,,0.00,meteobridge,2013-10-30 18:41:00,
2013-10-30 14:47:00,53.2,45.5,30.23,West,280,0.0,0.9,75,0.00,,,0.00,meteobridge,2013-10-30 18:47:00,
2013-10-30 14:52:00,53.2,45.5,30.23,West,280,0.0,0.0,75,0.00,,,0.00,meteobridge,2013-10-30 18:52:00,
2013-10-30 14:57:00,53.4,45.7,30.23,West,280,0.0,0.0,75,0.00,,,0.00,meteobridge,2013-10-30 18:57:00,
2013-10-30 15:02:00,53.4,45.7,30.22,West,280,0.0,0.0,75,0.00,,,0.00,meteobridge,2013-10-30 19:02:00,
2013-10-30 15:08:00,53.6,46.2,30.22,West,280,0.0,0.0,76,0.00,,,0.00,meteobridge,2013-10-30 19:08:00,
2013-10-30 15:13:00,53.8,46.4,30.22,West,279,0.0,0.0,76,0.00,,,0.00,meteobridge,2013-10-30 19:13:00,
2013-10-30 15:18:00,54.0,46.9,30.22,West,279,0.0,0.0,77,0.00,,,0.00,meteobridge,2013-10-30 19:18:00,
2013-10-30 15:24:00,54.0,47.3,30.22,NW,312,0.0,2.0,78,0.00,,,0.00,meteobridge,2013-10-30 19:24:00,
2013-10-30 15:29:00,54.0,47.7,30.22,WSW,257,4.0,4.0,79,0.00,,,0.00,meteobridge,2013-10-30 19:29:00,
2013-10-30 15:34:00,54.0,47.7,30.22,West,264,0.0,0.0,79,0.00,,,0.00,meteobridge,2013-10-30 19:34:00,
2013-10-30 15:39:00,54.1,48.0,30.22,West,264,0.0,0.0,80,0.00,,,0.00,meteobridge,2013-10-30 19:39:00,
2013-10-30 15:45:00,54.1,47.8,30.22,West,264,0.9,0.9,79,0.00,,,0.00,meteobridge,2013-10-30 19:45:00,
2013-10-30 15:50:00,54.1,48.0,30.22,WNW,285,0.0,2.9,80,0.00,,,0.00,meteobridge,2013-10-30 19:50:00,
2013-10-30 15:56:00,54.1,48.0,30.22,WNW,284,0.9,2.0,80,0.00,,,0.00,meteobridge,2013-10-30 19:56:00,
2013-10-30 16:01:00,54.1,48.4,30.22,WNW,297,0.0,0.9,81,0.00,,,0.00,meteobridge,2013-10-30 20:01:00,
2013-10-30 16:06:00,54.1,48.4,30.22,West,275,0.9,0.9,81,0.00,,,0.00,meteobridge,2013-10-30 20:06:00,
2013-10-30 16:12:00,54.1,48.4,30.22,West,281,0.0,2.0,81,0.00,,,0.00,meteobridge,2013-10-30 20:12:00,
2013-10-30 16:17:00,54.3,48.6,30.22,WNW,293,0.0,0.9,81,0.00,,,0.00,meteobridge,2013-10-30 20:17:00,
2013-10-30 16:22:00,54.3,48.2,30.22,NW,307,0.0,0.9,80,0.00,,,0.00,meteobridge,2013-10-30 20:22:00,
2013-10-30 16:28:00,54.3,48.6,30.22,NW,307,0.0,0.0,81,0.00,,,0.00,meteobridge,2013-10-30 20:28:00,
2013-10-30 16:33:00,54.3,48.6,30.22,SW,223,0.0,0.0,81,0.00,,,0.00,meteobridge,2013-10-30 20:33:00,
2013-10-30 16:38:00,54.3,48.6,30.22,SW,232,0.0,0.0,81,0.00,,,0.00,meteobridge,2013-10-30 20:38:00,
2013-10-30 16:43:00,54.3,48.6,30.22,SW,232,0.0,0.0,81,0.00,,,0.00,meteobridge,2013-10-30 20:43:00,
2013-10-30 16:49:00,54.3,48.9,30.22,SW,232,0.9,0.9,82,0.00,,,0.00,meteobridge,2013-10-30 20:49:00,
2013-10-30 16:55:00,54.3,48.9,30.22,SW,232,0.0,0.0,82,0.00,,,0.00,meteobridge,2013-10-30 20:55:00,
2013-10-30 17:00:00,54.3,48.6,30.22,WSW,252,0.9,2.0,81,0.00,,,0.00,meteobridge,2013-10-30 21:00:00,
2013-10-30 17:05:00,54.1,48.4,30.21,West,267,0.0,0.0,81,0.00,,,0.00,meteobridge,2013-10-30 21:05:00,
2013-10-30 17:10:00,54.1,48.4,30.21,West,267,0.9,0.9,81,0.00,,,0.00,meteobridge,2013-10-30 21:10:00,
2013-10-30 17:16:00,54.1,48.4,30.21,West,267,0.0,0.0,81,0.00,,,0.00,meteobridge,2013-10-30 21:16:00,
2013-10-30 17:21:00,54.1,48.4,30.21,West,267,0.0,0.0,81,0.00,,,0.00,meteobridge,2013-10-30 21:21:00,
2013-10-30 17:27:00,54.0,48.6,30.21,West,267,0.0,0.0,82,0.00,,,0.00,meteobridge,2013-10-30 21:27:00,
2013-10-30 17:32:00,54.0,48.6,30.21,West,267,0.0,0.0,82,0.00,,,0.00,meteobridge,2013-10-30 21:32:00,
2013-10-30 17:37:00,53.8,48.4,30.22,West,267,0.0,0.0,82,0.00,,,0.00,meteobridge,2013-10-30 21:37:00,
2013-10-30 17:42:00,53.8,48.7,30.22,SW,217,0.0,2.0,83,0.00,,,0.00,meteobridge,2013-10-30 21:42:00,
2013-10-30 17:47:00,53.6,48.6,30.22,SW,223,0.0,0.0,83,0.00,,,0.00,meteobridge,2013-10-30 21:47:00,
2013-10-30 17:52:00,53.4,48.4,30.22,SW,232,0.9,0.9,83,0.00,,,0.00,meteobridge,2013-10-30 21:52:00,
2013-10-30 17:58:00,53.2,48.6,30.22,SW,232,0.0,0.0,84,0.00,,,0.00,meteobridge,2013-10-30 21:58:00,
2013-10-30 18:03:00,53.2,48.6,30.22,West,279,0.0,2.0,84,0.00,,,0.00,meteobridge,2013-10-30 22:03:00,
2013-10-30 18:08:00,53.1,48.4,30.22,West,279,0.9,0.9,84,0.00,,,0.00,meteobridge,2013-10-30 22:08:00,
2013-10-30 18:13:00,53.1,48.4,30.23,West,279,0.0,0.0,84,0.00,,,0.00,meteobridge,2013-10-30 22:13:00,
2013-10-30 18:19:00,52.9,48.2,30.23,West,279,0.0,0.0,84,0.00,,,0.00,meteobridge,2013-10-30 22:19:00,
2013-10-30 18:24:00,52.7,47.7,30.23,West,279,0.0,0.0,83,0.00,,,0.00,meteobridge,2013-10-30 22:24:00,
2013-10-30 18:29:00,52.3,47.7,30.23,West,279,0.0,0.0,84,0.00,,,0.00,meteobridge,2013-10-30 22:29:00,
2013-10-30 18:35:00,52.0,47.3,30.23,West,279,0.0,0.0,84,0.00,,,0.00,meteobridge,2013-10-30 22:35:00,
2013-10-30 18:40:00,51.6,47.3,30.23,West,279,0.0,0.0,85,0.00,,,0.00,meteobridge,2013-10-30 22:40:00,
2013-10-30 18:45:00,51.4,47.1,30.23,West,279,0.0,0.0,85,0.00,,,0.00,meteobridge,2013-10-30 22:45:00,
2013-10-30 18:50:00,50.7,46.8,30.23,West,279,0.0,0.0,86,0.00,,,0.00,meteobridge,2013-10-30 22:50:00,
2013-10-30 18:56:00,50.4,46.4,30.23,West,279,0.0,0.0,86,0.00,,,0.00,meteobridge,2013-10-30 22:56:00,
2013-10-30 19:01:00,50.0,46.2,30.23,West,279,0.0,0.0,87,0.00,,,0.00,meteobridge,2013-10-30 23:01:00,
2013-10-30 19:06:00,49.6,45.9,30.24,West,279,0.0,0.0,87,0.00,,,0.00,meteobridge,2013-10-30 23:06:00,
2013-10-30 19:11:00,49.5,45.7,30.24,West,279,0.0,0.0,87,0.00,,,0.00,meteobridge,2013-10-30 23:11:00,
2013-10-30 19:17:00,48.9,45.1,30.24,West,279,0.0,0.0,87,0.00,,,0.00,meteobridge,2013-10-30 23:17:00,
2013-10-30 19:22:00,48.6,45.1,30.24,West,279,0.0,0.0,88,0.00,,,0.00,meteobridge,2013-10-30 23:22:00,
2013-10-30 19:28:00,48.0,44.6,30.25,West,279,0.0,0.0,88,0.00,,,0.00,meteobridge,2013-10-30 23:28:00,
2013-10-30 19:34:00,47.8,44.8,30.25,West,279,0.0,0.0,89,0.00,,,0.00,meteobridge,2013-10-30 23:34:00,
2013-10-30 19:39:00,47.7,44.6,30.25,West,279,0.0,0.0,89,0.00,,,0.00,meteobridge,2013-10-30 23:39:00,
2013-10-30 19:45:00,47.3,44.2,30.25,West,279,0.0,0.0,89,0.00,,,0.00,meteobridge,2013-10-30 23:45:00,
2013-10-30 19:51:00,46.9,44.2,30.24,West,279,0.0,0.0,90,0.00,,,0.00,meteobridge,2013-10-30 23:51:00,
2013-10-30 19:56:00,46.8,44.1,30.24,West,279,0.0,0.0,90,0.00,,,0.00,meteobridge,2013-10-30 23:56:00,
2013-10-30 20:01:00,46.6,43.9,30.24,West,279,0.0,0.0,90,0.00,,,0.00,meteobridge,2013-10-31 00:01:00,
2013-10-30 20:06:00,46.2,43.5,30.24,West,279,0.0,0.0,90,0.00,,,0.00,meteobridge,2013-10-31 00:06:00,
2013-10-30 20:12:00,45.9,43.2,30.24,West,279,0.0,0.0,90,0.00,,,0.00,meteobridge,2013-10-31 00:12:00,
2013-10-30 20:17:00,45.7,43.2,30.24,West,279,0.0,0.0,91,0.00,,,0.00,meteobridge,2013-10-31 00:17:00,
2013-10-30 20:22:00,45.3,42.6,30.25,West,279,0.0,0.0,90,0.00,,,0.00,meteobridge,2013-10-31 00:22:00,
2013-10-30 20:28:00,45.1,42.6,30.25,West,279,0.0,0.0,91,0.00,,,0.00,meteobridge,2013-10-31 00:28:00,
2013-10-30 20:34:00,45.0,42.3,30.25,West,279,0.0,0.0,90,0.00,,,0.00,meteobridge,2013-10-31 00:34:00,
2013-10-30 20:39:00,44.8,42.3,30.25,West,279,0.0,0.0,91,0.00,,,0.00,meteobridge,2013-10-31 00:39:00,
2013-10-30 20:44:00,44.6,42.1,30.25,West,279,0.0,0.0,91,0.00,,,0.00,meteobridge,2013-10-31 00:44:00,
2013-10-30 20:49:00,44.4,41.9,30.25,West,279,0.0,0.0,91,0.00,,,0.00,meteobridge,2013-10-31 00:49:00,
2013-10-30 20:54:00,44.2,41.7,30.25,West,279,0.0,0.0,91,0.00,,,0.00,meteobridge,2013-10-31 00:54:00,
2013-10-30 21:00:00,44.1,41.5,30.25,West,279,0.0,0.0,91,0.00,,,0.00,meteobridge,2013-10-31 01:00:00,
2013-10-30 21:05:00,43.7,41.2,30.25,West,279,0.0,0.0,91,0.00,,,0.00,meteobridge,2013-10-31 01:05:00,
2013-10-30 21:10:00,43.5,41.0,30.25,West,279,0.0,0.0,91,0.00,,,0.00,meteobridge,2013-10-31 01:10:00,
2013-10-30 21:16:00,43.3,40.8,30.25,West,279,0.0,0.0,91,0.00,,,0.00,meteobridge,2013-10-31 01:16:00,
2013-10-30 21:21:00,43.2,41.0,30.26,West,279,0.0,0.0,92,0.00,,,0.00,meteobridge,2013-10-31 01:21:00,
2013-10-30 21:26:00,43.0,40.8,30.25,West,279,0.0,0.0,92,0.00,,,0.00,meteobridge,2013-10-31 01:26:00,
2013-10-30 21:32:00,42.8,40.6,30.26,West,279,0.0,0.0,92,0.00,,,0.00,meteobridge,2013-10-31 01:32:00,
2013-10-30 21:37:00,42.6,40.5,30.25,West,279,0.0,0.0,92,0.00,,,0.00,meteobridge,2013-10-31 01:37:00,
2013-10-30 21:42:00,42.4,40.3,30.25,West,279,0.0,0.0,92,0.00,,,0.00,meteobridge,2013-10-31 01:42:00,
2013-10-30 21:48:00,42.3,40.1,30.25,West,279,0.0,0.0,92,0.00,,,0.00,meteobridge,2013-10-31 01:48:00,
2013-10-30 21:54:00,42.3,40.1,30.25,West,279,0.0,0.0,92,0.00,,,0.00,meteobridge,2013-10-31 01:54:00,
2013-10-30 21:59:00,42.1,39.9,30.25,West,279,0.0,0.0,92,0.00,,,0.00,meteobridge,2013-10-31 01:59:00,
2013-10-30 22:04:00,42.1,39.9,30.25,West,279,0.0,0.0,92,0.00,,,0.00,meteobridge,2013-10-31 02:04:00,
2013-10-30 22:09:00,41.9,39.7,30.25,West,279,0.0,0.0,92,0.00,,,0.00,meteobridge,2013-10-31 02:09:00,
2013-10-30 22:14:00,41.7,39.6,30.25,West,279,0.0,0.0,92,0.00,,,0.00,meteobridge,2013-10-31 02:14:00,
2013-10-30 22:20:00,41.5,39.4,30.25,West,279,0.0,0.0,92,0.00,,,0.00,meteobridge,2013-10-31 02:20:00,
2013-10-30 22:25:00,41.4,39.2,30.25,West,279,0.0,0.0,92,0.00,,,0.00,meteobridge,2013-10-31 02:25:00,
2013-10-30 22:31:00,41.4,39.6,30.25,West,279,0.0,0.0,93,0.00,,,0.00,meteobridge,2013-10-31 02:31:00,
2013-10-30 22:36:00,41.2,39.4,30.25,West,279,0.0,0.0,93,0.00,,,0.00,meteobridge,2013-10-31 02:36:00,
2013-10-30 22:41:00,41.2,39.4,30.26,West,279,0.0,0.0,93,0.00,,,0.00,meteobridge,2013-10-31 02:41:00,
2013-10-30 22:46:00,41.0,39.2,30.26,West,279,0.0,0.0,93,0.00,,,0.00,meteobridge,2013-10-31 02:46:00,
2013-10-30 22:51:00,40.8,39.0,30.26,West,279,0.0,0.0,93,0.00,,,0.00,meteobridge,2013-10-31 02:51:00,
2013-10-30 22:57:00,40.8,39.2,30.26,West,279,0.0,0.0,94,0.00,,,0.00,meteobridge,2013-10-31 02:57:00,
2013-10-30 23:02:00,40.6,38.8,30.27,West,279,0.0,0.0,93,0.00,,,0.00,meteobridge,2013-10-31 03:02:00,
2013-10-30 23:06:00,40.6,39.0,30.27,West,279,0.0,0.0,94,0.00,,,0.00,meteobridge,2013-10-31 03:06:00,
2013-10-30 23:11:00,40.5,38.8,30.26,West,279,0.0,0.0,94,0.00,,,0.00,meteobridge,2013-10-31 03:11:00,
2013-10-30 23:16:00,40.5,38.8,30.26,West,279,0.0,0.0,94,0.00,,,0.00,meteobridge,2013-10-31 03:16:00,
2013-10-30 23:22:00,40.3,38.7,30.26,West,279,0.0,0.0,94,0.00,,,0.00,meteobridge,2013-10-31 03:22:00,
2013-10-30 23:27:00,40.3,38.7,30.26,West,279,0.0,0.0,94,0.00,,,0.00,meteobridge,2013-10-31 03:27:00,
2013-10-30 23:33:00,40.1,38.3,30.25,West,279,0.0,0.0,93,0.00,,,0.00,meteobridge,2013-10-31 03:33:00,
2013-10-30 23:38:00,39.9,38.1,30.25,West,279,0.0,0.0,93,0.00,,,0.00,meteobridge,2013-10-31 03:38:00,
2013-10-30 23:43:00,39.7,37.9,30.26,West,279,0.0,0.0,93,0.00,,,0.00,meteobridge,2013-10-31 03:43:00,
2013-10-30 23:48:00,39.6,37.9,30.25,West,279,0.0,0.0,94,0.00,,,0.00,meteobridge,2013-10-31 03:48:00,
2013-10-30 23:53:00,39.6,37.9,30.26,West,279,0.0,0.0,94,0.00,,,0.00,meteobridge,2013-10-31 03:53:00,
2013-10-30 23:58:00,39.4,37.8,30.26,West,279,0.0,0.0,94,0.00,,,0.00,meteobridge,2013-10-31 03:58:00,